COSMOS 712

Satellite information

Favourite Embed

Satellite Type and Status

PAYLOADIN ORBIT

Key statistics

Satellite COSMOS 712 at a glance.

Uptime

18552

Days in orbit

Revolutions

≈ 12.5

Per day

Orbit

LEO

Low Earth Orbit

Inclination

74.0

Latest

Satellite identification and parameters

Extended collection of information and parameters for COSMOS 712.

Object identification

Identified? True

Debris? False

Object name: COSMOS 712

International designator: 1975-016B

Object number (NORAD): 7679

Object ID (CCSDS): 7679

Country: COMMONWEALTH OF INDEPENDENT STATES (CIS)

Current information (Y/N): Y

RCS size: MEDIUM

Orbital parameters

Period: 114.882 minutes

Inclination: 74.0049 deg

SMA: 7828.184 km

Apoapsis: 1489.591 km

Periapsis: 1410.508 km

RAAN: 12.7898 deg

Eccentricy: 0.00505121

Argument of periapsis: 197.5892 deg

Mean anomaly: 230.9079 deg

Mean motion: 12.53462044 rev/day

Mean motion (dot): -0.00000014 rev/day2

B* drag term: 0.000015810838 1/REarth

Two-line elements (TLE)

Creation date: Dec. 12, 2025, 10:14 a.m.

Reference frame: TEME

Reference center: EARTH

Epoch: Dec. 12, 2025, 5:05 a.m. UTC

TLE line 0: 0 COSMOS 712

TLE line 1: 1 07679U 75016B 25346.21222480 -.00000014 00000-0 15811-4 0 9995

TLE line 2: 2 07679 74.0049 12.7898 0050512 197.5892 230.9079 12.53462044323823

Live tracking on map

Real-time ground track for satellite COSMOS 712.

In-orbit conjunctions

A list of the most updated potential collisions computed for object COSMOS 712.

Target Orbit TCA Probability of collision Miss distance Type
COSMOS 1854 LEO 2025-09-29 22:43:27 0.001013658 54.0 (m) PAYLOAD

Associated space launch

Military communications satellites

COSMOS 712 was lifted into orbit during the mission ‘Kosmos-3M | Strela-1M 81-88’, on board a Kosmos-3M space rocket.

The launch took place on Feb. 28, 1975, 2:01 p.m. from 132/2.

For more information about the launch, click the button.

Launch to space Kosmos-3M | Strela-1M 81-88
Kosmos-3M | Strela-1M 81-88

Agency: N/A

Status: Launch Successful

Launch date: Feb. 28, 1975, 2:01 p.m. UTC

Rocket: Kosmos-3M

Launch pad: 132/2

Location: Plesetsk Cosmodrome, Russian Federation

...

Latest news about this satellite

There are no fresh news available about this satellite. Check back as we update our databases every day.


Newsletter sign-up

Weekly statistics, charts and insights to help you stay on top of the space industry.